This is the latest recevied weather packets stored in our database for station/object HI3LT-13. If no packets are shown the sender has not sent any weather packets the latest 10 day(s).
| Time | Temp. | Humidity | Pressure | Rain* | Wind** | Luminosity | Snow |
|---|---|---|---|---|---|---|---|
| 1788130636 | 29.44° C | 67% | 1014 hPa | 0 mm | - | - | - |
| 1788130035 | 29.44° C | 66% | 1014 hPa | 0 mm | - | - | - |
| 1788129434 | 30° C | 65% | 1014 hPa | 0 mm | - | - | - |
| 1788128833 | 30.56° C | 65% | 1013 hPa | 0 mm | - | - | - |
| 1788128231 | 31.11° C | 64% | 1013 hPa | 0 mm | - | - | - |
| 1788127631 | 29.44° C | 62% | 1013 hPa | 0 mm | - | - | - |
| 1788127029 | 31.67° C | 61% | 1013 hPa | 0 mm | - | - | - |
| 1788126428 | 31.67° C | 60% | 1013 hPa | 0 mm | - | - | - |
| 1788125827 | 31.67° C | 60% | 1013 hPa | 0 mm | - | - | - |
| 1788125226 | 32.22° C | 59% | 1012 hPa | 0 mm | - | - | - |
| 1788124625 | 32.78° C | 58% | 1012 hPa | 0 mm | - | - | - |
| 1788124024 | 33.89° C | 53% | 1012 hPa | 0 mm | - | - | - |
| 1788123423 | 33.33° C | 55% | 1013 hPa | 0 mm | - | - | - |
| 1788122822 | 33.33° C | 55% | 1013 hPa | 0 mm | - | - | - |
| 1788122221 | 33.33° C | 55% | 1013 hPa | 0 mm | - | - | - |
| 1788121619 | 35° C | 54% | 1013 hPa | 0 mm | - | - | - |
| 1788121018 | 35.56° C | 53% | 1013 hPa | 0 mm | - | - | - |
| 1788120417 | 36.11° C | 53% | 1013 hPa | 0 mm | - | - | - |
| 1788119816 | 35.56° C | 55% | 1013 hPa | 0 mm | - | - | - |
| 1788119215 | 35.56° C | 55% | 1013 hPa | 0 mm | - | - | - |
| 1788118613 | 35.56° C | 55% | 1013 hPa | 0 mm | - | - | - |
| 1788118012 | 36.11° C | 53% | 1013 hPa | 0 mm | - | - | - |
| 1788117410 | 36.11° C | 54% | 1013 hPa | 0 mm | - | - | - |
| 1788117287 | 36.11° C | 54% | 1013 hPa | 0 mm | - | - | - |
| 1788116686 | 35.56° C | 56% | 1013 hPa | 0 mm | - | - | - |
* Rain latest hour (hover to see other rain measurements)
** Current wind speed in m/s (hover to see current wind gust speed)